User: anonymous   Login
Location: Rio Negrinho
(26.2394°S, 49.4999°W)
Time: 10:38:39
(UTC+00:00)
Language:

SKYMED 2 - Orbit

View from above orbital plane
View from above orbital plane
View from above satellite
View from above satellite

Ground track
Ground track

The orbit data is extracted from the following two-line orbital elements,

1 32376U 07059A   20226.82800155  .00000233  00000-0  35778-4 0  9995
2 32376  97.8869  49.1524 0001481  91.7543 268.3835 14.82157053686076
Epoch (UTC): 13 August 2020 19:52:19
Eccentricity: 0.0001481
inclination: 97.8869°
perigee height: 621 km
apogee height: 623 km
right ascension of ascending node: 49.1524°
argument of perigee: 91.7543°
revolutions per day: 14.82157053
mean anomaly at epoch: 268.3835°
orbit number at epoch: 68607

The dashed part of the orbit path shows where the satellite is in the earth's shadow,  

DLR